Location: Harwich
(41.7160°N, 69.9939°W)
Time: 13:02:13
(UTC+01:00)

Explorer 7 - Visible Passes

Search period start: 13 November 2024 00:00
Search period end: 23 November 2024 00:00
Orbit: 457 x 601 km, 50.3° (Epoch: 12 November)

Date Brightness Start Highest point End Pass type
(mag) Time Alt. Az. Time Alt. Az. Time Alt. Az.
13 Nov 7.8 10:35:30 32° NNW 10:35:30 32° NNW 10:39:12 10° NE visible
14 Nov 8.2 10:23:51 28° N 10:23:51 28° N 10:26:52 10° NE visible
15 Nov 8.6 10:12:07 24° NNE 10:12:07 24° NNE 10:14:31 10° NE visible
15 Nov 8.3 11:47:33 10° NW 11:51:08 27° N 11:54:50 10° ENE visible
16 Nov 9.0 10:00:21 20° NNE 10:00:21 20° NNE 10:02:09 10° NE visible
16 Nov 8.2 11:35:33 12° NW 11:38:50 28° NNE 11:42:35 10° ENE visible
17 Nov 9.3 09:48:31 16° NE 09:48:31 16° NE 09:49:45 10° NE visible
17 Nov 8.2 11:23:44 15° NW 11:26:30 29° NNE 11:30:18 10° ENE visible
18 Nov 9.7 09:36:40 13° NE 09:36:40 13° NE 09:37:22 10° NE visible
18 Nov 8.1 11:11:53 19° NW 11:14:08 31° NNE 11:17:59 10° E visible
19 Nov 10.0 09:24:48 11° NE 09:24:48 11° NE 09:24:56 10° NE visible
19 Nov 8.0 11:00:01 24° NNW 11:01:44 34° NNE 11:05:38 10° E visible
20 Nov 7.9 10:48:08 30° NNW 10:49:18 36° NNE 10:53:15 10° E visible
21 Nov 7.6 10:36:16 38° N 10:36:49 40° NNE 10:40:50 10° E visible
22 Nov 7.6 10:24:25 44° NNE 10:24:25 44° NNE 10:28:22 10° E visible
22 Nov 7.6 11:59:45 10° WNW 12:03:40 41° SW 12:07:44 10° SSE visible
